Ball Ground, GA

3:47 PM EST on December 04, 2016 (GMT -0500)
Canton

Weather History for KCNI - January, 2014

Change the Weather History Date:

Wednesday, January 15, 2014

  Actual Average (KVPC) Record (KVPC)
Temperature  
Mean Temperature 38 °F 41 °F  
Max Temperature 46 °F 52 °F 70 °F (2007)
Min Temperature 30 °F 30 °F 19 °F (2009)
Degree Days  
Heating Degree Days 27 24  
Month to date heating degree days 360  
Since 1 July heating degree days 1662  
Moisture  
Dew Point 23 °F    
Average Humidity 60    
Maximum Humidity 93    
Minimum Humidity 17    
Precipitation  
Precipitation 0.00 in 0.16 in 1.33 in (2016)
Month to date precipitation 1.89  
Year to date precipitation 1.89  
Sea Level Pressure  
Sea Level Pressure 29.98 in    
Wind  
Wind Speed 3 mph (WNW)    
Max Wind Speed 14 mph    
Max Gust Speed 25 mph    
Visibility 10 miles    
Events      
T = Trace of Precipitation, MM = Missing Value Source: NWS Daily Summary

Daily Weather History Graph

Daily Weather History Graph

Search for Another Location

Airport or City:

Trip Planner

Search our weather history database for the weather conditions in past years. The results will help you decide how hot, cold, wet, or windy it might be!

Date:

Astronomy

Jan. 15, 2014 Rise Set
Actual Time 7:43 AM EST 5:50 PM EST
Civil Twilight 7:16 AM EST 6:18 PM EST
Nautical Twilight 6:45 AM EST 6:49 PM EST
Astronomical Twilight 6:15 AM EST 7:19 PM EST
Moon 5:45 PM EST (1/15) 7:01 AM EST (1/15)
Length of Visible Light 11h 01m
Length of Day
10h 07m
Full, 100% of the Moon is Illuminated
Jan 15
Full
Jan 15
Full
Jan 24
Last Quarter
Jan 30
New
Feb 6
First Quarter

Hourly Weather History & Observations

Time (EST) Temp. Windchill Dew Point Humidity Pressure Visibility Wind Dir Wind Speed Gust Speed Precip Events Conditions
12:15 AM 33.8 °F - 30.2 °F 87% 29.99 in 10.0 mi Calm Calm - N/A   Clear
12:35 AM 35.6 °F - 32.0 °F 87% 29.98 in 10.0 mi Calm Calm - N/A   Clear
12:55 AM 35.6 °F - 32.0 °F 87% 29.97 in 10.0 mi Calm Calm - N/A   Clear
1:15 AM 33.8 °F - 32.0 °F 93% 29.97 in 10.0 mi Calm Calm - N/A   Clear
1:35 AM 33.8 °F - 30.2 °F 87% 29.96 in 10.0 mi Calm Calm - N/A   Clear
1:55 AM 33.8 °F - 30.2 °F 87% 29.95 in 10.0 mi Calm Calm - N/A   Clear
2:15 AM 33.8 °F - 32.0 °F 93% 29.96 in 10.0 mi Calm Calm - N/A   Clear
2:35 AM 32.0 °F - 30.2 °F 93% 29.96 in 10.0 mi Calm Calm - N/A   Scattered Clouds
2:55 AM 33.8 °F - 32.0 °F 93% 29.96 in 10.0 mi Calm Calm - N/A   Clear
3:15 AM 32.0 °F - 30.2 °F 93% 29.96 in 10.0 mi Calm Calm - N/A   Mostly Cloudy
3:35 AM 33.8 °F - 32.0 °F 93% 29.95 in 10.0 mi Calm Calm - N/A   Mostly Cloudy
3:55 AM 39.2 °F - 30.2 °F 70% 29.95 in 10.0 mi Calm Calm - N/A   Clear
4:15 AM 37.4 °F - 30.2 °F 75% 29.95 in 10.0 mi Calm Calm - N/A   Clear
4:35 AM 37.4 °F 34.9 °F 28.4 °F 70% 29.95 in 10.0 mi West 3.5 mph - N/A   Clear
4:55 AM 35.6 °F 29.9 °F 30.2 °F 81% 29.95 in 10.0 mi WNW 6.9 mph - N/A   Mostly Cloudy
5:15 AM 37.4 °F 32.1 °F 30.2 °F 75% 29.94 in 10.0 mi NW 6.9 mph - N/A   Scattered Clouds
5:35 AM 37.4 °F 33.8 °F 32.0 °F 81% 29.95 in 10.0 mi WNW 4.6 mph - N/A   Mostly Cloudy
5:55 AM 35.6 °F 31.7 °F 32.0 °F 87% 29.96 in 10.0 mi WNW 4.6 mph - N/A   Scattered Clouds
6:15 AM 35.6 °F 30.7 °F 32.0 °F 87% 29.96 in 10.0 mi WNW 5.8 mph - N/A   Clear
6:35 AM 37.4 °F 32.8 °F 32.0 °F 81% 29.96 in 10.0 mi WNW 5.8 mph - N/A   Scattered Clouds
6:55 AM 37.4 °F 32.8 °F 32.0 °F 81% 29.97 in 10.0 mi WNW 5.8 mph - N/A   Overcast
7:15 AM 37.4 °F 32.8 °F 32.0 °F 81% 29.97 in 10.0 mi WNW 5.8 mph - N/A   Overcast
7:35 AM 37.4 °F 34.9 °F 32.0 °F 81% 29.98 in 10.0 mi NW 3.5 mph - N/A   Overcast
7:55 AM 35.6 °F 32.8 °F 32.0 °F 87% 29.99 in 10.0 mi WNW 3.5 mph - N/A   Overcast
8:15 AM 37.4 °F 33.8 °F 32.0 °F 81% 29.99 in 10.0 mi NW 4.6 mph - N/A   Overcast
8:35 AM 37.4 °F 34.9 °F 32.0 °F 81% 29.99 in 10.0 mi NW 3.5 mph - N/A   Overcast
8:55 AM 37.4 °F 34.9 °F 30.2 °F 75% 30.00 in 10.0 mi WNW 3.5 mph - N/A   Overcast
9:15 AM 39.2 °F 35.9 °F 30.2 °F 70% 30.01 in 10.0 mi WNW 4.6 mph - N/A   Overcast
9:35 AM 41.0 °F 37.1 °F 30.2 °F 65% 30.01 in 10.0 mi WNW 5.8 mph - N/A   Overcast
9:55 AM 41.0 °F 35.8 °F 28.4 °F 61% 30.02 in 10.0 mi WNW 8.1 mph - N/A   Mostly Cloudy
10:15 AM 41.0 °F 35.8 °F 28.4 °F 61% 30.03 in 10.0 mi WNW 8.1 mph - N/A   Mostly Cloudy
10:35 AM 41.0 °F 37.1 °F 28.4 °F 61% 30.03 in 10.0 mi NW 5.8 mph - N/A   Mostly Cloudy
10:55 AM 42.8 °F 40.1 °F 28.4 °F 57% 30.03 in 10.0 mi WNW 4.6 mph - N/A   Mostly Cloudy
11:15 AM 42.8 °F 40.1 °F 28.4 °F 57% 30.02 in 10.0 mi WNW 4.6 mph - N/A   Mostly Cloudy
11:35 AM 44.6 °F 42.2 °F 28.4 °F 53% 30.01 in 10.0 mi WNW 4.6 mph - N/A   Mostly Cloudy
11:55 AM 44.6 °F 41.4 °F 26.6 °F 49% 30.00 in 10.0 mi WNW 5.8 mph - N/A   Mostly Cloudy
12:15 PM 42.8 °F 38.6 °F 26.6 °F 53% 29.99 in 10.0 mi WNW 6.9 mph - N/A   Mostly Cloudy
12:35 PM 42.8 °F 40.1 °F 26.6 °F 53% 29.98 in 10.0 mi West 4.6 mph - N/A   Overcast
12:55 PM 44.6 °F 42.2 °F 26.6 °F 49% 29.97 in 10.0 mi NW 4.6 mph - N/A   Mostly Cloudy
1:15 PM 42.8 °F 38.0 °F 23.0 °F 46% 29.96 in 10.0 mi WNW 8.1 mph - N/A   Mostly Cloudy
1:35 PM 41.0 °F 37.1 °F 26.6 °F 57% 29.96 in 10.0 mi West 5.8 mph - N/A   Overcast
1:55 PM 42.8 °F 38.6 °F 26.6 °F 53% 29.95 in 10.0 mi WNW 6.9 mph - N/A   Mostly Cloudy
2:15 PM 44.6 °F 40.7 °F 23.0 °F 43% 29.94 in 10.0 mi NW 6.9 mph - N/A   Mostly Cloudy
2:35 PM 46.4 °F - 17.6 °F 32% 29.94 in 10.0 mi Calm Calm - N/A   Mostly Cloudy
2:55 PM 46.4 °F 44.3 °F 14.0 °F 27% 29.94 in 10.0 mi NNW 4.6 mph - N/A   Mostly Cloudy
3:15 PM 46.4 °F 41.5 °F 10.4 °F 23% 29.94 in 10.0 mi West 10.4 mph - N/A   Scattered Clouds
3:35 PM 46.4 °F 44.3 °F 3.2 °F 17% 29.94 in 10.0 mi WNW 4.6 mph - N/A   Clear
3:55 PM 46.4 °F 41.5 °F 3.2 °F 17% 29.94 in 10.0 mi WNW 10.4 mph - N/A   Clear
4:15 PM 44.6 °F 41.4 °F 3.2 °F 18% 29.95 in 10.0 mi WNW 5.8 mph - N/A   Clear
4:35 PM 44.6 °F 42.2 °F 8.6 °F 23% 29.95 in 10.0 mi NW 4.6 mph - N/A   Clear
4:55 PM 44.6 °F 41.4 °F 8.6 °F 23% 29.95 in 10.0 mi NW 5.8 mph - N/A   Scattered Clouds
5:15 PM 42.8 °F 40.1 °F 8.6 °F 25% 29.95 in 10.0 mi WNW 4.6 mph - N/A   Scattered Clouds
5:35 PM 41.0 °F 35.8 °F 3.2 °F 21% 29.96 in 10.0 mi WNW 8.1 mph 16.1 mph N/A   Clear
5:55 PM 39.2 °F 34.2 °F 5.0 °F 24% 29.97 in 10.0 mi WNW 6.9 mph - N/A   Clear
6:15 PM 39.2 °F 34.2 °F 5.0 °F 24% 29.98 in 10.0 mi WNW 6.9 mph - N/A   Clear
6:35 PM 37.4 °F 32.8 °F 8.6 °F 30% 29.98 in 10.0 mi WNW 5.8 mph - N/A   Clear
6:55 PM 37.4 °F 32.1 °F 8.6 °F 30% 29.99 in 10.0 mi WNW 6.9 mph - N/A   Clear
7:15 PM 37.4 °F 31.4 °F 8.6 °F 30% 29.99 in 10.0 mi WNW 8.1 mph - N/A   Clear
7:35 PM 35.6 °F 26.6 °F 12.2 °F 38% 30.00 in 10.0 mi NW 13.8 mph 25.3 mph N/A   Clear
7:55 PM 33.8 °F 25.8 °F 19.4 °F 56% 30.01 in 10.0 mi NW 10.4 mph 19.6 mph N/A   Clear
8:15 PM 33.8 °F 27.0 °F 19.4 °F 56% 30.02 in 10.0 mi NW 8.1 mph - N/A   Clear
8:35 PM 33.8 °F 27.0 °F 19.4 °F 56% 30.03 in 10.0 mi NW 8.1 mph 17.3 mph N/A   Clear
8:55 PM 32.0 °F 24.8 °F 19.4 °F 60% 30.03 in 10.0 mi NW 8.1 mph 16.1 mph N/A   Clear
9:15 PM 32.0 °F 24.8 °F 19.4 °F 60% 30.04 in 10.0 mi NW 8.1 mph - N/A   Clear
9:35 PM 32.0 °F 25.6 °F 19.4 °F 60% 30.04 in 10.0 mi NW 6.9 mph - N/A   Clear
9:55 PM 32.0 °F 25.6 °F 17.6 °F 55% 30.04 in 10.0 mi NW 6.9 mph - N/A   Clear
10:15 PM 32.0 °F 26.4 °F 17.6 °F 55% 30.04 in 10.0 mi NW 5.8 mph - N/A   Clear
10:35 PM 32.0 °F 27.5 °F 17.6 °F 55% 30.04 in 10.0 mi NW 4.6 mph - N/A   Clear
10:55 PM 30.2 °F 23.4 °F 17.6 °F 60% 30.03 in 10.0 mi NW 6.9 mph - N/A   Clear
11:15 PM 30.2 °F 24.3 °F 17.6 °F 60% 30.04 in 10.0 mi NW 5.8 mph - N/A   Clear
11:35 PM 30.2 °F 24.3 °F 17.6 °F 60% 30.03 in 10.0 mi NW 5.8 mph - N/A   Clear
11:55 PM 30.2 °F 23.4 °F 15.8 °F 55% 30.03 in 10.0 mi WNW 6.9 mph - N/A   Clear